Simultaneous Nadir Overpasses (SNOs) Predictions

Prediction of SNOs between GOES-17 and TERRA Satellite Orbit:

Table of predicted SNOs for the next 14.0 days since TLE Epoch: 2/5/2022
Index Date Time (GOES-17) GOES-17 Lat,Lon TERRA Lat,Lon Distance(km) Time Diff (sec)
1 02/06/2022 07:20:50 -0.02,-137.19 0.47,-134.88 263.32 80
2 02/06/2022 19:44:45 0.03,-137.20 0.61,-140.04 322.61 80
3 02/08/2022 19:29:50 0.02,-137.19 -0.00,-137.08 12.77 80
4 02/10/2022 19:17:35 0.02,-137.17 -0.62,-134.12 347.48 80
5 02/11/2022 07:41:38 -0.02,-137.16 -0.50,-139.31 243.98 80
6 02/13/2022 07:29:23 -0.00,-137.14 0.14,-136.35 89.68 80
7 02/13/2022 19:47:58 -0.00,-137.14 0.93,-141.51 497.11 80
8 02/15/2022 07:17:08 -0.00,-137.11 0.78,-133.39 423.01 80
9 02/15/2022 19:35:43 -0.00,-137.11 0.29,-138.55 163.78 80
10 02/17/2022 19:26:07 0.00,-137.08 -0.31,-135.59 169.26 80
11 02/18/2022 07:44:50 -0.00,-137.06 -0.80,-140.78 422.54 80
